Regional Weather Roundup
Issued by NWS

Home | Current Version | Previous Version | Graphics & Text | Print | Product List | Glossary On
Versions: 1 2 3 4 5 6 7 8 9 10 11 12 13 14 15 16 17 18 19 20 21 22 23 24 25 26 27 28
000
ASUS45 KPSR 260510
RWRAZ

ARIZONA HOURLY REGIONAL WEATHER ROUNDUP
NATIONAL WEATHER SERVICE PHOENIX AZ
1000 PM MST MON JUL 25 2016

NOTE: FAIR INDICATES FEW OR NO CLOUDS BELOW 12,000 FEET WITH NO
SIGNIFICANT WEATHER AND/OR OBSTRUCTIONS TO VISIBILITY.

AZZ001>003-036-260600-
NORTHWEST ARIZONA

CITY           SKY/WX    TMP DP  RH WIND       PRES   REMARKS
BULLHEAD CITY  CLEAR    102  55  21 SW6G20    29.76R HX 101
KINGMAN        PTCLDY    82  56  40 SE14      30.02R
$$

AZZ004>008-015-016-018-260600-
NORTH CENTRAL ARIZONA

CITY           SKY/WX    TMP DP  RH WIND       PRES   REMARKS
GRAND CANYON   CLOUDY    66  48  52 N3        30.33R
WILLIAMS       CLOUDY    66  52  59 NE5       30.40R
PRESCOTT       CLOUDY    68  62  81 W9        30.17S
FLAGSTAFF      CLOUDY    58  56  93 NE8       30.35R
PAYSON         MOCLDY    72  59  64 CALM      30.20S
PAGE           CLOUDY    89  45  21 VRB6      30.09R
$$

AZZ009>014-017-260600-
NORTHEAST ARIZONA

CITY           SKY/WX    TMP DP  RH WIND       PRES   REMARKS
WINSLOW        CLOUDY    76  47  35 S3        30.19R
SAINT JOHNS    MOCLDY    74  51  44 N3        30.23S
WINDOW ROCK    CLOUDY    70  54  56 NE3       30.32R
SHOW LOW       CLOUDY    68  50  52 NE3       30.31F
$$

AZZ023-260600-
GREATER PHOENIX AREA

CITY           SKY/WX    TMP DP  RH WIND       PRES   REMARKS
PHOENIX        PTCLDY    99  52  20 N8        29.82R
BUCKEYE        CLEAR     91  57  31 SE9       29.84R
LUKE AFB       CLEAR     94  57  28 NE6       29.82S
DEER VALLEY    CLEAR     94  52  24 CALM      29.84R
SCOTTSDALE     CLEAR     96  52  22 NE6       29.86S
MESA-GATEWAY   PTCLDY    93  55  27 N10       29.85R
$$

AZZ027-028-260600-
SOUTHWEST MARICOPA COUNTY AND PINAL COUNTY

CITY           SKY/WX    TMP DP  RH WIND       PRES   REMARKS
CASA GRANDE    PTCLDY    95  55  26 N15       29.88R
GILA BEND      PTCLDY    99  55  22 NE6       29.81R
$$

AZZ503-504-507>509-260600-
SOUTHEAST ARIZONA

CITY           SKY/WX    TMP DP  RH WIND       PRES   REMARKS
TUCSON         PTCLDY    94  56  27 NW9       29.96R
DAVIS-MONTHAN  MOCLDY    93  56  29 NW8       29.94S
NOGALES        CLEAR     83  58  42 NW5       30.06R
SIERRA VISTA   CLEAR     82  53  37 W10       30.13S
DOUGLAS        CLEAR     76  66  71 NE3       30.07R
SAFFORD        MOCLDY    91  52  26 NW10G21   29.96R
$$

AZZ020-021-025-026-031-260600-
SOUTHWEST ARIZONA

CITY           SKY/WX    TMP DP  RH WIND       PRES   REMARKS
YUMA           NOT AVBL
$$

CAZ031-033-041-043-047-048-061-260600-
SOUTHERN CALIFORNIA

CITY           SKY/WX    TMP DP  RH WIND       PRES   REMARKS
DOWNTOWN L.A.  PTCLDY    72  65  78 CALM      29.91R
L.A. AIRPORT   CLOUDY    70  65  84 W10       29.92R
SAN DIEGO      PTCLDY    68  65  90 W5        29.93R
BURBANK        CLEAR     77  53  43 S3        29.91R
ONTARIO        MOCLDY    78  58  49 SW8       29.93R
RIVERSIDE      PTCLDY    80  55  42 W7        29.93R
PALM SPRINGS   CLEAR    100  55  22 CALM      29.79R
EL CENTRO NAS  PTCLDY    97  61  30 S10       29.76R
IMPERIAL       CLEAR     99  65  32 SW8       29.73R HX 102
BLYTHE         PTCLDY   103  61  25 SW9       29.76R HX 104
NEEDLES        PTCLDY   104  55  19 S16       29.77R HX 102
$$

NVZ020-UTZ003-260600-
SOUTHERN NEVADA-UTAH

CITY           SKY/WX    TMP DP  RH WIND       PRES   REMARKS
LAS VEGAS      PTCLDY   101  37  11 S8        29.81R
SALT LAKE CITY PTCLDY    88  36  15 SE14      30.01R
$$

NMZ009-TXZ055-260600-
NEW MEXICO-WEST TEXAS

CITY           SKY/WX    TMP DP  RH WIND       PRES   REMARKS
ALBUQUERQUE    CLOUDY    79  53  40 NE9       30.23S
EL PASO        PTCLDY    90  48  23 E12       30.03R
$$


........................KEY........................
SKY/WX - SKY CONDITION/WEATHER
TMP    - TEMPERATURE IN FAHRENHEIT
DP     - DEW POINT IN FAHRENHEIT
RH     - RELATIVE HUMIDITY IN PERCENT
WIND   - DIRECTION AND SPEED IN MILES PER HOUR (MPH)
VRB    - VARIABLE WIND DIRECTION
PRES   - MEAN SEA LEVEL PRESSURE IN INCHES OF MERCURY
         F - FALLING PRESSURE   R - RISING PRESSURE
         S - STEADY PRESSURE
VSB    - VISIBILITY IN MILES
HX     - HEAT INDEX IN FAHRENHEIT
WCI    - WIND CHILL INDEX IN FAHRENHEIT
TC     - TEMPERATURE IN CELSIUS WHICH IS ALSO KNOWN AS
         TEMPERATURE IN CENTIGRADE
AFB    - AIR FORCE BASE
         LUKE AFB IS LUKE AIR FORCE BASE
         DAVIS-MONTHAN IS DAVIS-MONTHAN AIR FORCE BASE
NAS    - NAVAL AIR STATION
         EL CENTRO NAS IS EL CENTRO NAVAL AIR STATION
N/A    - NOT AVAILABLE





USA.gov is the U.S. government's official web portal to all federal, state and local government web resources and services.